Volver al catálogo

HULIANWANG DIGUI-69

ActivoComunicacionesPO
NORAD 65229·PAYLOAD·🇨🇳 China

Lanzado Aug 17, 2025 desde Taiyuan Satellite Launch Center

Loading…

Próximos Pases (próximas 24 horas)

TLE

ActualizadoSource: Space-Track

Época: Sep 14, 2026, 22:47 UTC

1 65229U 25178B   26257.94968490  .00000076  00000-0  14309-3 0  9991
2 65229  86.5061 343.3193 0001661 104.5612 255.5706 13.24415045 52197

Sigue HULIANWANG DIGUI-69 en tiempo real con AllMySat

Download on the App Store